Location: Katwijk
(52.2000°N, 4.4170°E)
Time: 07:50:55
(UTC+02:00)

ISS - Visible Passes

Search period start: 04 September 2015 00:00
Search period end: 14 September 2015 00:00
Orbit: 400 x 403 km, 51.6° (Epoch: 01 September)

Date Brightness Start Highest point End Pass type
(mag) Time Alt. Az. Time Alt. Az. Time Alt. Az.
11 Sep -1.2 06:28:19 10° SSW 06:30:51 21° SSE 06:33:24 10° E visible
12 Sep -0.7 05:36:05 10° S 05:37:47 14° SE 05:39:33 10° ESE visible
13 Sep -2.1 06:17:29 10° SW 06:20:28 33° SSE 06:23:29 10° E visible
